Lexington Weather

Lexington, Massachusetts, USA

44°F
9/19/2020 8:10am 
  • Lexington Conditions: Clear
  • Temperature: 44.1°F / 6.7°CWarmer 1.3°F than last hour.
  • Dew Point: 36.3°FIncreased 0.9°Fsince last hour.
  • Relative Humidity: 74%Decreased 1.0% since last hour.
  • Wind: Wind from NNE NNE Calm, 10-min avg: 1 mph, gust: 2 mph
  • Barometer: 30.25 inRising 0.03  inHg/hr Rising Slowly
  • Visibility: 10 miles
  • Rain Today: 0.00 in
  •   
Southeast Middlesex County - Special Weather Statement
 - SEE ALL NEARBY ALERTS -

Regional Weather Roundup
for Boston / Norton, MA

        
000
ASUS41 KBOX 171404
RWRBOX

REGIONAL WEATHER ROUNDUP
NATIONAL WEATHER SERVICE BOSTON/NORTON MA
1000 AM EDT THU SEP 17 2020

NOTE:  "FAIR" INDICATES FEW OR NO CLOUDS BELOW 12,000 FEET WITH NO 
SIGNIFICANT WEATHER AND/OR OBSTRUCTIONS TO VISIBILITY.

MAZALL-171500-
EASTERN MASSACHUSETTS
  
CITY           SKY/WX    TMP DP  RH WIND       PRES   REMARKS
BOSTON         PTSUNNY   68  55  63 W14       30.03R                  
BEVERLY        SUNNY     68  56  65 W6        30.02R                  
LAWRENCE       SUNNY     66  57  72 SW9       30.05R                  
BEDFORD        MOSUNNY   67  56  67 W8        30.03R                  
BLUE HILL        N/A     63  55  75 SW10G22   30.04R                  
NORWOOD        MOSUNNY   69  57  65 SW8       30.04S                  
MARSHFIELD     MOSUNNY   70  61  73 VRB6G15   30.04S                  
PLYMOUTH       PTSUNNY   69  59  70 SW10      30.06S                  
TAUNTON        MOSUNNY   72  58  61 SW9G17    30.05S                  
NEW BEDFORD    MOSUNNY   72  59  63 SW10      30.06S                  
$$

MAZALL-171500-
CAPE COD AND THE ISLANDS
  
CITY           SKY/WX    TMP DP  RH WIND       PRES   REMARKS
FALMOUTH       PTSUNNY   68  61  77 W12       30.07S                  
HYANNIS        MOSUNNY   72  61  68 SW13      30.06R                  
CHATHAM        SUNNY     73  61  65 VRB6      30.09R                  
PROVINCETOWN   MOSUNNY   67  61  81 SW12      30.06S                  
NANTUCKET      SUNNY     72  65  78 SW8       30.08S                  
MARTHAS VNYRD  PTSUNNY   73  65  75 SW10      30.07S                  
$$
 
MAZALL-171500-
CENTRAL AND WESTERN MASSACHUSETTS
  
CITY           SKY/WX    TMP DP  RH WIND       PRES   REMARKS
WORCESTER      MOSUNNY   63  54  72 W13       30.06R                  
FITCHBURG      MOSUNNY   67  53  61 W8        30.04R                  
ORANGE         MOSUNNY   64  55  72 S6        30.05S                  
SPRINGFIELD    PTSUNNY   64  55  74 S3        30.04R                  
WESTFIELD      MOSUNNY   62  57  83 CALM      30.05R                  
NORTH ADAMS    MOSUNNY   62  54  74 CALM      30.05R                  
PITTSFIELD     MOSUNNY   62  55  77 CALM      30.05R                  
$$
 
RIZALL-171500-
RHODE ISLAND
  
CITY           SKY/WX    TMP DP  RH WIND       PRES   REMARKS
PROVIDENCE     PTSUNNY   70  58  65 SW8       30.07R                  
NEWPORT        MOSUNNY   70  59  68 VRB3      30.07S                  
BLOCK ISLAND   CLOUDY    69  63  81 W7        30.08S                  
SMITHFIELD     MOSUNNY   67  58  72 W7G16     30.06S                  
WESTERLY       PTSUNNY   70  58  65 VRB3      30.07S                  
$$
 
CTZALL-171500-
CONNECTICUT
  
CITY           SKY/WX    TMP DP  RH WIND       PRES   REMARKS
BRADLEY INTL   PTSUNNY   66  56  70 SW12      30.05R                  
HARTFORD       MOSUNNY   68  56  65 SW5       30.05S                  
BRIDGEPORT     PTSUNNY   69  61  75 SW7       30.06S                  
DANBURY        PTSUNNY   64  59  83 SW7       30.07S                  
GROTON         PTSUNNY   69  59  70 VRB6      30.06S                  
NEW HAVEN      CLOUDY    71  62  73 W5        30.06S                  
CHESTER        NOT AVBL                                               
MERIDEN        MOSUNNY   67  57  70 VRB3      30.06S                  
WILLIMANTIC    MOSUNNY   66  57  72 VRB5      30.06S                  
OXFORD         PTSUNNY   63  59  87 VRB5      30.08R                  
$$

MEZ002-015-021-024-NHZ003-005-008-011-012-014-VTZ005-008-171500-
NORTHERN NEW ENGLAND
  
CITY           SKY/WX    TMP DP  RH WIND       PRES   REMARKS
PORTLAND ME    PTSUNNY   66  55  67 W7        29.99R                  
BANGOR ME      MOSUNNY   65  54  67 SW7       29.98S                  
CONCORD NH     MOSUNNY   63  54  72 CALM      30.02R                  
MANCHESTER NH  PTSUNNY   65  55  70 S3        30.01R                  
NASHUA NH      MOSUNNY   66  58  75 VRB6      30.03R                  
PORTSMOUTH NH  PTSUNNY   65  54  66 W7        30.00R                  
JAFFREY NH     MOSUNNY   61  53  75 S9        30.05R                  
KEENE NH       MOSUNNY   62  55  77 VRB3      30.05R                  
BURLINGTON VT  CLOUDY    58  52  80 E3        30.05R                  
MT. WASHINGTON FOG       43  43 100 W39G49      N/A  VSB 0   WCI  31  
$$

NYZ052-076-171500-
EASTERN NEW YORK
  
CITY           SKY/WX    TMP DP  RH WIND       PRES   REMARKS
ALBANY         PTSUNNY   58  55  90 S7        30.05R                  
NEW YORK CITY  CLOUDY    72  58  61 SW8       30.05F                  
$$
 
ANZALL-171500-
MARINE OBSERVATIONS
  
STATION/POSITION TIME  TEMP    WIND        PRES    VSBY  WAVE
                       AIR SEA DIR/SP/G                  HT/PER
                 (UTC) (F)     (DEG/KT/KT) (MB)    (MI)  (FT/S)
BOSTON BUOY      1350   65 64  220/ 12/ 14 1015.8R         2/12
BUZZARDS BAY     1300          210/  8/ 10 1019.1R
NANTUCKET SOUND  1350      70  210/  8/ 10   N/A           1
MASS BAY-STELLWA 1304   63     270/ 14/ 17 1014.3S  1 7/8  2/ 3
ISLE OF SHOALS   1300   60     230/ 12/ 13 1015.7R
S OF BLOCK IS    1326      70                N/A           4/11
$$

......................KEY.........................
  SKY/WX - SKY CONDITION/PRESENT WEATHER
  TMP    - TEMPERATURE IN FAHRENHEIT
  DWPT   - DEWPOINT IN FAHRENHEIT
  RH     - RELATIVE HUMIDITY IN PERCENT
  WIND   - DIRECTION AND SPEED IN MPH
  PRES   - MEAN SEA LEVEL PRESSURE IN INCHES OF HG
  WCI    - WIND CHILL INDEX
  VSB    - VISIBILITY IN MILES
  HX     - HEAT INDEX
  TC     - TEMPERATURE IN CELSIUS
  VRB    - VARIABLE WIND DIRECTION
  N/A    - NOT AVAILABLE
  
      

Other recent Regional Weather Roundups

Sat Sep 19, 7:04am

Sat Sep 19, 6:04am

Sat Sep 19, 5:04am

Sat Sep 19, 4:04am

Sat Sep 19, 3:04am

Sat Sep 19, 2:04am

Sat Sep 19, 1:04am

Sat Sep 19, 12:04am

Fri Sep 18, 11:05pm

Fri Sep 18, 10:04pm

Fri Sep 18, 9:04pm

Fri Sep 18, 8:04pm

Fri Sep 18, 7:04pm

Fri Sep 18, 6:04pm

Fri Sep 18, 5:05pm

Fri Sep 18, 4:04pm

Fri Sep 18, 3:05pm

Fri Sep 18, 2:04pm

Fri Sep 18, 1:04pm

Fri Sep 18, 12:04pm

Fri Sep 18, 11:05am

Fri Sep 18, 10:05am

Fri Sep 18, 9:04am

Fri Sep 18, 8:04am

Fri Sep 18, 7:04am

Fri Sep 18, 6:04am

Fri Sep 18, 5:04am

Fri Sep 18, 4:04am

Fri Sep 18, 3:04am

Fri Sep 18, 2:04am

Fri Sep 18, 1:04am

Fri Sep 18, 12:04am

Thu Sep 17, 11:05pm

Thu Sep 17, 10:04pm

Thu Sep 17, 9:04pm

Thu Sep 17, 8:05pm

Thu Sep 17, 7:04pm

Thu Sep 17, 6:04pm

Thu Sep 17, 5:04pm

Thu Sep 17, 4:04pm

Thu Sep 17, 3:05pm

Thu Sep 17, 2:04pm

Thu Sep 17, 1:04pm

Thu Sep 17, 12:04pm

Thu Sep 17, 11:04am

Thu Sep 17, 9:04am

Thu Sep 17, 8:04am

Thu Sep 17, 7:04am

Thu Sep 17, 6:04am

Thu Sep 17, 5:04am

Thu Sep 17, 4:04am

Thu Sep 17, 3:04am

Thu Sep 17, 2:05am

Thu Sep 17, 1:05am

Thu Sep 17, 12:04am

Wed Sep 16, 11:04pm

Wed Sep 16, 10:04pm

Wed Sep 16, 9:04pm

Wed Sep 16, 8:05pm

Wed Sep 16, 7:04pm

Wed Sep 16, 6:04pm

Wed Sep 16, 5:04pm

Wed Sep 16, 4:04pm

Wed Sep 16, 3:04pm

Wed Sep 16, 2:04pm

Wed Sep 16, 1:04pm

Wed Sep 16, 12:04pm

Wed Sep 16, 11:04am

Wed Sep 16, 10:04am

Wed Sep 16, 9:04am

Wed Sep 16, 8:04am

Wed Sep 16, 7:04am

Wed Sep 16, 6:04am

Wed Sep 16, 5:04am

Wed Sep 16, 4:04am

Wed Sep 16, 3:04am

Wed Sep 16, 2:04am

Wed Sep 16, 1:04am

Wed Sep 16, 12:05am

Tue Sep 15, 11:04pm

Tue Sep 15, 10:04pm

Tue Sep 15, 9:04pm

Tue Sep 15, 8:04pm

Tue Sep 15, 7:04pm

Tue Sep 15, 6:04pm

Tue Sep 15, 5:04pm

Tue Sep 15, 4:05pm

Tue Sep 15, 3:04pm

Tue Sep 15, 2:04pm

Tue Sep 15, 1:04pm

Tue Sep 15, 12:04pm

Tue Sep 15, 11:04am

Tue Sep 15, 10:04am

Tue Sep 15, 9:04am

Tue Sep 15, 8:04am

Tue Sep 15, 7:04am

Tue Sep 15, 6:04am

Tue Sep 15, 5:04am

Tue Sep 15, 4:04am

Tue Sep 15, 3:04am

Tue Sep 15, 2:04am

Tue Sep 15, 1:04am

Tue Sep 15, 12:05am

Mon Sep 14, 11:04pm

Mon Sep 14, 10:04pm

Mon Sep 14, 9:04pm

Mon Sep 14, 8:04pm

Mon Sep 14, 7:04pm

Mon Sep 14, 6:04pm

Mon Sep 14, 5:04pm

Mon Sep 14, 4:05pm

Mon Sep 14, 3:04pm

Mon Sep 14, 2:05pm

Mon Sep 14, 1:04pm

Mon Sep 14, 12:04pm

Mon Sep 14, 11:04am

Mon Sep 14, 10:05am

Mon Sep 14, 9:04am

Mon Sep 14, 8:04am

Mon Sep 14, 7:04am

Mon Sep 14, 6:04am

Mon Sep 14, 5:04am

Mon Sep 14, 4:04am

Mon Sep 14, 3:04am

Mon Sep 14, 2:04am

Mon Sep 14, 1:04am

Mon Sep 14, 12:04am

Sun Sep 13, 11:05pm

Sun Sep 13, 10:04pm

Sun Sep 13, 9:04pm

Sun Sep 13, 8:04pm

Sun Sep 13, 7:05pm

Sun Sep 13, 6:05pm

Sun Sep 13, 5:05pm

Sun Sep 13, 4:04pm

Sun Sep 13, 3:04pm

Sun Sep 13, 2:04pm

Sun Sep 13, 1:04pm

Sun Sep 13, 12:04pm

Sun Sep 13, 11:05am

Sun Sep 13, 10:04am

Sun Sep 13, 9:04am

Sun Sep 13, 8:04am

Sun Sep 13, 7:04am

Sun Sep 13, 6:04am

Sun Sep 13, 5:04am

Sun Sep 13, 4:04am

Sun Sep 13, 3:04am

Sun Sep 13, 2:04am

Sun Sep 13, 1:04am

Sun Sep 13, 12:04am

Sat Sep 12, 11:04pm

Sat Sep 12, 10:04pm

Sat Sep 12, 9:04pm

Sat Sep 12, 8:04pm

Sat Sep 12, 7:05pm

Sat Sep 12, 6:04pm

Sat Sep 12, 5:04pm

Sat Sep 12, 4:05pm

Sat Sep 12, 3:04pm

Sat Sep 12, 2:04pm

Sat Sep 12, 1:05pm

Sat Sep 12, 12:04pm

Sat Sep 12, 11:04am

Sat Sep 12, 10:04am

Sat Sep 12, 9:04am

Sat Sep 12, 8:04am

Meta data:

ID: d0e916f5-95a9-475c-8fb8-d8e0bc499706
Link: https://api.weather.gov/products/d0e916f5-95a9-475c-8fb8-d8e0bc499706